Location: Deep River
(46.0977°N, 77.4933°W)
Time: 22:07:03
(UTC-04:00)

OTV 5 (USA 277) - Visible Passes

Search period start: 20 October 2019 00:00
Search period end: 30 October 2019 00:00
Orbit: 310 x 324 km, 54.5° (Epoch: 17 October)

Date Brightness Start Highest point End Pass type
(mag) Time Alt. Az. Time Alt. Az. Time Alt. Az.
20 Oct ? 05:37:48 26° SE 05:37:48 26° SE 05:39:09 10° SE visible
21 Oct ? 05:52:34 15° S 05:52:34 15° S 05:53:13 10° SSE visible
28 Oct ? 19:09:41 10° S 19:11:24 16° SE 19:11:24 16° SE visible
29 Oct ? 19:23:14 10° SSW 19:25:47 37° SE 19:25:53 37° SE visible
